Weather reports worldwide

Advertisment
Albacete/Los Llanos, Spain (8280): temperature & dewpoint: 26.06.2020 07:00:00 - 02.07.2020 07:00:00 (CEST)Albacete/Los Llanos, Spain (8280): wind speed: 26.06.2020 07:00:00 - 02.07.2020 07:00:00 (CEST)Albacete/Los Llanos, Spain (8280): wind direction: 26.06.2020 07:00:00 - 02.07.2020 07:00:00 (CEST)Albacete/Los Llanos, Spain (8280): reduced air pressure: 26.06.2020 07:00:00 - 02.07.2020 07:00:00 (CEST)Albacete/Los Llanos, Spain (8280): visibility: 26.06.2020 07:00:00 - 02.07.2020 07:00:00 (CEST)
Date & Time tt [°C] td [°C] ff [km/h] ff [kn] dd ppp [hPa] vv [km]
02.07.2020 07:00:00 - - - - - - -
02.07.2020 06:00:00 - - - - - - -
02.07.2020 05:00:00 21,9 5,3 11 6 W 1012,6 30
02.07.2020 04:00:00 - - - - - - -
02.07.2020 03:00:00 - - - - - - -
02.07.2020 02:00:00 24,9 4,6 16 9 WSW 1012,3 30
02.07.2020 01:00:00 - - - - - - -
02.07.2020 00:00:00 - - - - - - -
01.07.2020 23:00:00 28,1 4,4 9 5 WSW 1011,0 30
01.07.2020 22:00:00 - - - - - - -
01.07.2020 21:00:00 - - - - - - -
01.07.2020 20:00:00 34,4 6,7 15 8 SW 1007,5 30
01.07.2020 19:00:00 - - - - - - -
01.07.2020 18:00:00 - - - - - - -
01.07.2020 17:00:00 34,9 7,1 15 8 W 1008,2 30
01.07.2020 16:00:00 - - - - - - -
01.07.2020 15:00:00 - - - - - - -
01.07.2020 14:00:00 33,4 6,6 24 13 W 1009,7 30
01.07.2020 13:00:00 - - - - - - -
01.07.2020 12:00:00 - - - - - - -
01.07.2020 11:00:00 29,9 10,9 24 13 W 1010,6 30
01.07.2020 10:00:00 - - - - - - -
01.07.2020 09:00:00 - - - - - - -
01.07.2020 08:00:00 21,0 12,2 4 2 N 1012,5 30
01.07.2020 07:00:00 - - - - - - -
01.07.2020 06:00:00 - - - - - - -
01.07.2020 05:00:00 19,6 8,6 5 3 SSE 1011,7 30
01.07.2020 04:00:00 - - - - - - -
01.07.2020 03:00:00 - - - - - - -
01.07.2020 02:00:00 22,8 8,5 15 8 SSE 1010,9 30
01.07.2020 01:00:00 - - - - - - -
01.07.2020 00:00:00 - - - - - - -
30.06.2020 23:00:00 26,3 6,3 18 10 SSE 1009,9 30
30.06.2020 22:00:00 - - - - - - -
30.06.2020 21:00:00 - - - - - - -
30.06.2020 20:00:00 32,1 7,7 28 15 SSE 1006,6 30
30.06.2020 19:00:00 - - - - - - -
30.06.2020 18:00:00 - - - - - - -
30.06.2020 17:00:00 34,5 7,5 31 17 S 1007,1 30
30.06.2020 16:00:00 - - - - - - -
30.06.2020 15:00:00 - - - - - - -
30.06.2020 14:00:00 33,1 7,1 29 16 SSE 1009,5 30
30.06.2020 13:00:00 - - - - - - -
30.06.2020 12:00:00 - - - - - - -
30.06.2020 11:00:00 29,1 7,6 22 12 SE 1011,4 30
30.06.2020 10:00:00 - - - - - - -
30.06.2020 09:00:00 - - - - - - -
30.06.2020 08:00:00 20,6 8,3 5 3 ENE 1013,7 40
30.06.2020 07:00:00 - - - - - - -
30.06.2020 06:00:00 - - - - - - -
30.06.2020 05:00:00 21,3 7,2 13 7 SSE 1012,8 30
30.06.2020 04:00:00 - - - - - - -
30.06.2020 03:00:00 - - - - - - -
30.06.2020 02:00:00 23,0 5,9 13 7 SSE 1013,4 30
30.06.2020 01:00:00 - - - - - - -
30.06.2020 00:00:00 - - - - - - -
29.06.2020 23:00:00 25,3 10,0 13 7 SSE 1012,7 30
29.06.2020 22:00:00 - - - - - - -
29.06.2020 21:00:00 - - - - - - -
29.06.2020 20:00:00 32,0 11,7 22 12 S 1009,4 30
29.06.2020 19:00:00 - - - - - - -
29.06.2020 18:00:00 - - - - - - -
29.06.2020 17:00:00 35,2 8,9 15 8 S 1009,6 30
29.06.2020 16:00:00 - - - - - - -
29.06.2020 15:00:00 - - - - - - -
29.06.2020 14:00:00 35,7 10,0 5 3 SSW 1011,2 30
29.06.2020 13:00:00 - - - - - - -
29.06.2020 12:00:00 - - - - - - -
29.06.2020 11:00:00 28,9 10,1 5 3 NW 1014,2 30
29.06.2020 10:00:00 - - - - - - -
29.06.2020 09:00:00 - - - - - - -
29.06.2020 08:00:00 20,6 11,8 15 8 S 1016,1 30
29.06.2020 07:00:00 - - - - - - -
29.06.2020 06:00:00 - - - - - - -
29.06.2020 05:00:00 20,0 11,0 11 6 S 1015,4 30
29.06.2020 04:00:00 - - - - - - -
29.06.2020 03:00:00 - - - - - - -
29.06.2020 02:00:00 22,4 12,6 15 8 SSE 1015,5 30
29.06.2020 01:00:00 - - - - - - -
29.06.2020 00:00:00 - - - - - - -
28.06.2020 23:00:00 25,4 14,5 16 9 S 1014,3 30
28.06.2020 22:00:00 - - - - - - -
28.06.2020 21:00:00 - - - - - - -
28.06.2020 20:00:00 32,9 9,7 15 8 S 1011,0 40
28.06.2020 19:00:00 - - - - - - -
28.06.2020 18:00:00 - - - - - - -
28.06.2020 17:00:00 34,4 10,3 9 5 S 1011,3 40
28.06.2020 16:00:00 - - - - - - -
28.06.2020 15:00:00 - - - - - - -
28.06.2020 14:00:00 32,2 10,3 5 3 WSW 1013,7 40
28.06.2020 13:00:00 - - - - - - -
28.06.2020 12:00:00 - - - - - - -
28.06.2020 11:00:00 26,7 11,2 9 5 NW 1016,0 40
28.06.2020 10:00:00 - - - - - - -
28.06.2020 09:00:00 - - - - - - -
28.06.2020 08:00:00 18,0 11,8 8 4 SW 1017,6 40
28.06.2020 07:00:00 - - - - - - -
28.06.2020 06:00:00 - - - - - - -
28.06.2020 05:00:00 18,9 11,7 8 4 S 1016,5 40
28.06.2020 04:00:00 - - - - - - -
28.06.2020 03:00:00 - - - - - - -
28.06.2020 02:00:00 21,4 11,4 9 5 S 1016,1 40
28.06.2020 01:00:00 - - - - - - -
28.06.2020 00:00:00 - - - - - - -
27.06.2020 23:00:00 25,0 9,7 9 5 S 1014,1 40
27.06.2020 22:00:00 - - - - - - -
27.06.2020 21:00:00 - - - - - - -
27.06.2020 20:00:00 32,4 7,3 11 6 NNW 1010,8 45
27.06.2020 19:00:00 - - - - - - -
27.06.2020 18:00:00 - - - - - - -
27.06.2020 17:00:00 32,5 6,7 13 7 W 1011,2 40
27.06.2020 16:00:00 - - - - - - -
27.06.2020 15:00:00 - - - - - - -
27.06.2020 14:00:00 30,7 7,8 9 5 WNW 1013,1 40
27.06.2020 13:00:00 - - - - - - -
27.06.2020 12:00:00 - - - - - - -
27.06.2020 11:00:00 24,8 7,0 15 8 NW 1015,2 35
27.06.2020 10:00:00 - - - - - - -
27.06.2020 09:00:00 - - - - - - -
27.06.2020 08:00:00 16,9 7,5 5 3 S 1016,7 30
27.06.2020 07:00:00 - - - - - - -
27.06.2020 06:00:00 - - - - - - -
27.06.2020 05:00:00 17,2 5,2 4 2 NW 1016,0 30
27.06.2020 04:00:00 - - - - - - -
27.06.2020 03:00:00 - - - - - - -
27.06.2020 02:00:00 20,1 7,8 9 5 NW 1014,7 30
27.06.2020 01:00:00 - - - - - - -
27.06.2020 00:00:00 - - - - - - -
26.06.2020 23:00:00 24,3 12,9 13 7 S 1012,3 30
26.06.2020 22:00:00 - - - - - - -
26.06.2020 21:00:00 - - - - - - -
26.06.2020 20:00:00 31,5 5,1 22 12 W 1007,9 30
26.06.2020 19:00:00 - - - - - - -
26.06.2020 18:00:00 - - - - - - -
26.06.2020 17:00:00 32,9 10,9 15 8 SE 1008,2 30
26.06.2020 16:00:00 - - - - - - -
26.06.2020 15:00:00 - - - - - - -
26.06.2020 14:00:00 30,4 10,4 8 4 ESE 1010,8 35
26.06.2020 13:00:00 - - - - - - -
26.06.2020 12:00:00 - - - - - - -
26.06.2020 11:00:00 26,7 9,5 16 9 S 1013,0 40
26.06.2020 10:00:00 - - - - - - -
26.06.2020 09:00:00 - - - - - - -
26.06.2020 08:00:00 18,1 10,0 5 3 ESE 1015,3 40
26.06.2020 07:00:00 - - - - - - -

tt = temperature
td = dewpoint
ff = wind speed
dd = wind direction
ppp = reduced air pressure
vv = visibility

Next stations